Location: Allos
(44.2333°N, 6.6333°E)
Time: 05:26:01
(UTC+00:00)

Cosmos 1656 Rocket - Pass Details

Date: 01 December 2020
Orbit: 796 x 846 km, 71.1° (Epoch: 24 January)

Event Time Altitude Azimuth Distance (km) Brightness Sun altitude
Rises 17:02:58 0° 340° (NNW) 3,405 6.9 -11.7°
Reaches altitude 10° 17:05:40 10° 350° (N) 2,461 6.0 -12.2°
Maximum altitude 17:10:46 34° 55° (NE) 1,353 4.3 -13.1°
Drops below altitude 10° 17:15:46 10° 119° (ESE) 2,420 5.7 -13.9°
Enters shadow 17:17:09 - 125° (SE) 2,896 6.1 -14.1°
